KD0SBN Weather Reports


Display with metric or nautical units.
time (UTC)temp
F
wind
direction
speed
MPH
gust
MPH
rain 1hr
in
rain 24hr
in
rain mn
in
humidity
%
barometer
mb
20260906211730 90 127 6.0 10.0 0.00 0.00 0.00 39 1015.9
20260906211225 90 117 8.0 11.0 0.00 0.00 0.00 39 1015.9
20260906210721 91 81 7.0 9.0 0.00 0.00 0.00 40 1016.1
20260906210221 91 165 5.0 9.0 0.00 0.00 0.00 41 1016.1
20260906205716 90 98 4.0 8.0 0.00 0.00 0.00 42 1015.9
20260906205213 91 97 6.0 11.0 0.00 0.00 0.00 41 1016.1
20260906204713 91 85 8.0 11.0 0.00 0.00 0.00 40 1016.2
20260906204212 91 89 6.0 10.0 0.00 0.00 0.00 39 1016.1
20260906203712 91 100 10.0 14.0 0.00 0.00 0.00 40 1016.4
20260906203207 92 106 7.0 11.0 0.00 0.00 0.00 39 1016.4
20260906202704 91 95 3.0 8.0 0.00 0.00 0.00 38 1016.3
20260906202203 92 108 4.0 8.0 0.00 0.00 0.00 38 1016.4
20260906201658 92 61 7.0 11.0 0.00 0.00 0.00 39 1016.5
20260906201157 92 124 9.0 11.0 0.00 0.00 0.00 38 1016.3
20260906200654 92 79 9.0 11.0 0.00 0.00 0.00 37 1016.4
20260906200149 91 81 4.0 14.0 0.00 0.00 0.00 39 1016.5
20260906195650 92 43 1.0 6.0 0.00 0.00 0.00 37 1016.5
20260906195146 92 45 4.0 14.0 0.00 0.00 0.00 38 1016.8
20260906194642 92 72 10.0 11.0 0.00 0.00 0.00 38 1016.8
20260906194137 91 110 4.0 8.0 0.00 0.00 0.00 39 1017.0
20260906193632 92 86 4.0 6.0 0.00 0.00 0.00 38 1016.9
20260906193127 90 100 5.0 7.0 0.00 0.00 0.00 40 1017.1
20260906192623 90 75 8.0 11.0 0.00 0.00 0.00 40 1017.0
20260906192122 91 85 6.0 9.0 0.00 0.00 0.00 40 1017.0
20260906191617 91 115 6.0 11.0 0.00 0.00 0.00 41 1017.1
20260906191117 90 73 6.0 13.0 0.00 0.00 0.00 41 1017.5
20260906190616 89 142 8.0 9.0 0.00 0.00 0.00 42 1017.3
20260906190111 91 155 4.0 10.0 0.00 0.00 0.00 41 1017.5
20260906185610 89 212 2.0 4.0 0.00 0.00 0.00 43 1017.7
20260906185109 91 83 4.0 6.0 0.00 0.00 0.00 40 1017.9
20260906184604 89 65 0.0 2.0 0.00 0.00 0.00 41 1018.0
20260906184100 89 98 2.0 4.0 0.00 0.00 0.00 43 1018.0
20260906183555 90 83 9.0 10.0 0.00 0.00 0.00 42 1018.2
20260906183051 88 9 4.0 4.0 0.00 0.00 0.00 42 1018.3
20260906182546 89 74 2.0 7.0 0.00 0.00 0.00 42 1018.4
20260906182042 88 156 1.0 8.0 0.00 0.00 0.00 43 1018.3
20260906181537 89 59 6.0 9.0 0.00 0.00 0.00 42 1018.5
20260906181033 88 64 0.0 3.0 0.00 0.00 0.00 44 1018.6
20260906180528 89 34 2.0 3.0 0.00 0.00 0.00 42 1018.7
20260906180027 88 217 1.0 6.0 0.00 0.00 0.00 44 1018.9
20260906175526 89 70 3.0 6.0 0.00 0.00 0.00 43 1019.2
20260906175026 90 21 0.0 3.0 0.00 0.00 0.00 41 1019.3
20260906174524 89 138 1.0 3.0 0.00 0.00 0.00 42 1019.0
20260906174019 86 247 4.0 4.0 0.00 0.00 0.00 45 1019.3
20260906173514 87 85 3.0 6.0 0.00 0.00 0.00 44 1019.3
20260906173010 87 71 6.0 7.0 0.00 0.00 0.00 44 1019.3
20260906172505 86 67 0.0 3.0 0.00 0.00 0.00 45 1019.4
20260906172000 85 100 4.0 9.0 0.00 0.00 0.00 46 1019.6
20260906171454 86 74 3.0 6.0 0.00 0.00 0.00 45 1019.6
20260906170950 85 12 2.0 7.0 0.00 0.00 0.00 44 1019.6
20260906170446 85 345 0.0 2.0 0.00 0.00 0.00 47 1019.8
20260906165943 85 1 2.0 2.0 0.00 0.00 0.00 46 1019.6
20260906165442 84 327 1.0 2.0 0.00 0.00 0.00 48 1019.4
20260906164937 84 40 1.0 3.0 0.00 0.00 0.00 46 1020.0
20260906164436 84 350 1.0 11.0 0.00 0.00 0.00 47 1019.7
20260906163933 83 76 3.0 4.0 0.00 0.00 0.00 46 1019.8
20260906163428 83 7 2.0 6.0 0.00 0.00 0.00 47 1019.8
20260906162926 83 15 2.0 4.0 0.00 0.00 0.00 47 1019.9
20260906162425 84 71 2.0 3.0 0.00 0.00 0.00 47 1019.8
20260906161920 83 159 0.0 3.0 0.00 0.00 0.00 48 1019.8
20260906161420 82 341 1.0 6.0 0.00 0.00 0.00 50 1020.0
20260906160919 82 346 1.0 4.0 0.00 0.00 0.00 52 1019.9
20260906160412 82 48 2.0 3.0 0.00 0.00 0.00 50 1019.8
20260906155911 83 354 2.0 4.0 0.00 0.00 0.00 50 1019.7
20260906155404 81 145 0.0 3.0 0.00 0.00 0.00 53 1020.0
20260906154901 81 33 1.0 6.0 0.00 0.00 0.00 52 1019.7
20260906154355 80 95 1.0 3.0 0.00 0.00 0.00 53 1019.9
20260906153854 80 116 1.0 4.0 0.00 0.00 0.00 53 1019.9
20260906153353 79 80 4.0 4.0 0.00 0.00 0.00 55 1019.7
20260906152848 80 36 2.0 3.0 0.00 0.00 0.00 54 1019.9
20260906152349 80 70 0.0 3.0 0.00 0.00 0.00 54 1019.9
20260906151848 78 69 2.0 4.0 0.00 0.00 0.00 56 1019.9
20260906151344 79 70 4.0 8.0 0.00 0.00 0.00 55 1019.8
20260906150839 79 59 2.0 3.0 0.00 0.00 0.00 55 1019.9
20260906150335 78 79 5.0 7.0 0.00 0.00 0.00 56 1019.8
20260906145834 78 61 2.0 4.0 0.00 0.00 0.00 56 1019.9
20260906145332 78 70 5.0 7.0 0.00 0.00 0.00 56 1019.8
20260906144828 78 46 3.0 7.0 0.00 0.00 0.00 57 1019.7
20260906144323 78 77 3.0 6.0 0.00 0.00 0.00 56 1019.8
20260906143822 77 13 2.0 4.0 0.00 0.00 0.00 57 1019.7
20260906143319 77 13 2.0 4.0 0.00 0.00 0.00 56 1019.7
20260906142814 76 65 2.0 3.0 0.00 0.00 0.00 57 1019.7
20260906142309 76 16 4.0 6.0 0.00 0.00 0.00 58 1019.8
20260906141808 75 14 4.0 6.0 0.00 0.00 0.00 59 1019.8
20260906141303 74 346 2.0 3.0 0.00 0.00 0.00 60 1019.6
20260906140802 73 6 3.0 4.0 0.00 0.00 0.00 61 1019.6
20260906140257 73 327 2.0 2.0 0.00 0.00 0.00 61 1019.6
20260906135755 73 358 2.0 3.0 0.00 0.00 0.00 61 1019.6
20260906135250 73 353 2.0 6.0 0.00 0.00 0.00 61 1019.6
20260906134745 72 359 2.0 3.0 0.00 0.00 0.00 62 1019.6
20260906134241 72 355 2.0 4.0 0.00 0.00 0.00 62 1019.3
20260906133736 72 16 2.0 2.0 0.00 0.00 0.00 63 1019.3
20260906133231 71 346 3.0 4.0 0.00 0.00 0.00 64 1019.3
20260906132726 71 7 1.0 2.0 0.00 0.00 0.00 65 1019.3
20260906132222 70 354 1.0 1.0 0.00 0.00 0.00 66 1019.0
20260906131718 70 9 1.0 2.0 0.00 0.00 0.00 66 1019.0
20260906131212 71 9 4.0 6.0 0.00 0.00 0.00 65 1018.9
20260906130708 71 4 1.0 2.0 0.00 0.00 0.00 65 1018.6
20260906130203 70 321 1.0 2.0 0.00 0.00 0.00 65 1018.7
20260906125701 69 323 2.0 3.0 0.00 0.00 0.00 67 1018.9
20260906125200 69 316 1.0 2.0 0.00 0.00 0.00 67 1018.7
20260906124655 69 337 2.0 2.0 0.00 0.00 0.00 68 1018.6
20260906124150 68 348 2.0 2.0 0.00 0.00 0.00 68 1018.5
20260906123649 68 301 1.0 2.0 0.00 0.00 0.00 68 1018.4
20260906123145 68 339 1.0 3.0 0.00 0.00 0.00 68 1018.4
20260906122644 68 333 1.0 2.0 0.00 0.00 0.00 68 1018.7
20260906122139 69 311 1.0 2.0 0.00 0.00 0.00 67 1018.4
20260906121636 69 359 1.0 3.0 0.00 0.00 0.00 67 1018.2
20260906121132 69 308 1.0 3.0 0.00 0.00 0.00 67 1018.3
20260906120627 69 325 2.0 2.0 0.00 0.00 0.00 67 1018.0
20260906120125 69 321 1.0 2.0 0.00 0.00 0.00 67 1018.3
20260906115625 69 315 2.0 2.0 0.00 0.00 0.00 66 1018.3
20260906115121 70 332 1.0 3.0 0.00 0.00 0.00 66 1018.0
20260906114619 69 346 2.0 3.0 0.00 0.00 0.00 66 1018.0
20260906114115 69 328 1.0 1.0 0.00 0.00 0.00 68 1018.3
20260906113614 69 300 1.0 2.0 0.00 0.00 0.00 68 1018.2
20260906113109 69 326 0.0 1.0 0.00 0.00 0.00 68 1018.3
20260906112609 69 332 1.0 2.0 0.00 0.00 0.00 67 1018.3
20260906112106 69 280 0.0 2.0 0.00 0.00 0.00 67 1018.2
20260906111605 69 355 1.0 2.0 0.00 0.00 0.00 68 1017.9
20260906111100 69 311 1.0 2.0 0.00 0.00 0.00 68 1018.3
20260906110600 69 305 1.0 2.0 0.00 0.00 0.00 68 1017.9
20260906110100 69 299 1.0 1.0 0.00 0.00 0.00 68 1018.3
20260906105554 69 279 1.0 2.0 0.00 0.00 0.00 68 1018.0
20260906105051 69 302 1.0 2.0 0.00 0.00 0.00 68 1018.0
20260906104549 69 321 1.0 2.0 0.00 0.00 0.00 67 1018.3
20260906104044 70 297 0.0 0.0 0.00 0.00 0.00 67 1018.2
20260906103542 70 333 0.0 1.0 0.00 0.00 0.00 67 1018.2
20260906103037 70 311 0.0 2.0 0.00 0.00 0.00 67 1017.9
20260906102538 70 326 1.0 2.0 0.00 0.00 0.00 67 1018.4
20260906102033 70 280 0.0 4.0 0.00 0.00 0.00 67 1018.0
20260906101533 69 306 1.0 2.0 0.00 0.00 0.00 67 1018.2
20260906101027 70 304 1.0 2.0 0.00 0.00 0.00 67 1018.5
20260906100524 69 291 1.0 2.0 0.00 0.00 0.00 67 1018.4
20260906100023 69 296 0.0 1.0 0.00 0.00 0.00 68 1018.3
20260906095518 69 346 1.0 2.0 0.00 0.00 0.00 68 1018.3
20260906095014 69 287 2.0 2.0 0.00 0.00 0.00 68 1018.2
20260906094512 69 318 1.0 2.0 0.00 0.00 0.00 68 1018.3
20260906094009 69 326 1.0 3.0 0.00 0.00 0.00 68 1017.9
20260906093504 69 321 1.0 2.0 0.00 0.00 0.00 68 1017.9
20260906092959 69 328 2.0 2.0 0.00 0.00 0.00 68 1017.9
20260906092459 69 296 1.0 3.0 0.00 0.00 0.00 68 1017.9
20260906091954 69 347 3.0 6.0 0.00 0.00 0.00 68 1018.2
20260906091450 68 341 2.0 2.0 0.00 0.00 0.00 69 1017.9
20260906090947 68 345 1.0 2.0 0.00 0.00 0.00 69 1017.9
20260906090441 68 336 2.0 3.0 0.00 0.00 0.00 69 1018.0
20260906085941 68 338 1.0 2.0 0.00 0.00 0.00 69 1018.0
20260906085440 68 298 1.0 2.0 0.00 0.00 0.00 68 1018.2
20260906084940 69 314 1.0 2.0 0.00 0.00 0.00 68 1017.9
20260906084435 68 335 1.0 2.0 0.00 0.00 0.00 68 1017.8
20260906083934 68 314 3.0 6.0 0.00 0.00 0.00 68 1018.0
20260906083430 69 328 2.0 3.0 0.00 0.00 0.00 67 1018.2
20260906082929 69 336 3.0 6.0 0.00 0.00 0.00 67 1018.0
20260906082424 69 334 2.0 4.0 0.00 0.00 0.00 67 1018.3
20260906081920 69 305 2.0 3.0 0.00 0.00 0.00 67 1018.0
20260906081415 69 20 3.0 6.0 0.00 0.00 0.00 66 1018.2
20260906080911 69 7 4.0 8.0 0.00 0.00 0.00 66 1018.2
20260906080408 69 356 4.0 7.0 0.00 0.00 0.00 65 1018.0
20260906075907 70 296 3.0 6.0 0.00 0.00 0.00 65 1017.8
20260906075402 70 327 3.0 7.0 0.00 0.00 0.00 65 1017.9
20260906074857 70 355 2.0 3.0 0.00 0.00 0.00 64 1017.6
20260906074356 70 17 1.0 4.0 0.00 0.00 0.00 64 1017.6
20260906073855 69 348 2.0 3.0 0.00 0.00 0.00 64 1017.7
20260906073350 69 328 2.0 3.0 0.00 0.00 0.00 65 1017.5
20260906072847 69 3 4.0 6.0 0.00 0.00 0.00 64 1017.6
20260906072342 70 313 2.0 3.0 0.00 0.00 0.00 63 1017.6
20260906071839 70 348 2.0 3.0 0.00 0.00 0.00 63 1017.3
20260906071339 71 4 2.0 4.0 0.00 0.00 0.00 62 1017.6
20260906070836 71 346 2.0 3.0 0.00 0.00 0.00 61 1017.3
20260906070331 71 294 2.0 3.0 0.00 0.00 0.00 60 1017.5
20260906065827 71 359 2.0 3.0 0.00 0.00 0.00 60 1017.3
20260906065321 72 331 2.0 4.0 0.00 0.00 0.00 59 1017.6
20260906064817 72 330 2.0 3.0 0.00 0.00 0.00 59 1017.5
20260906064313 72 0 2.0 3.0 0.00 0.00 0.00 59 1017.6
20260906063812 72 325 3.0 4.0 0.00 0.00 0.00 59 1017.5
20260906063308 72 321 2.0 3.0 0.00 0.00 0.00 58 1017.3
20260906062803 72 318 1.0 2.0 0.00 0.00 0.00 58 1017.5
20260906062305 72 297 2.0 3.0 0.00 0.00 0.00 58 1017.7
20260906061758 72 350 1.0 3.0 0.00 0.00 0.00 58 1017.6
20260906061255 72 317 1.0 2.0 0.00 0.00 0.00 58 1017.7
20260906060755 73 7 2.0 4.0 0.00 0.00 0.00 57 1017.7
20260906060253 73 345 1.0 2.0 0.00 0.00 0.00 56 1017.6
20260906055748 73 335 1.0 2.0 0.00 0.00 0.00 56 1017.7
20260906055243 73 318 1.0 2.0 0.00 0.00 0.00 56 1017.7
20260906054738 73 256 2.0 3.0 0.00 0.00 0.00 56 1017.6
20260906054234 73 331 0.0 2.0 0.00 0.00 0.00 56 1017.9
20260906053730 73 344 1.0 3.0 0.00 0.00 0.00 55 1017.7
20260906053226 74 13 2.0 3.0 0.00 0.00 0.00 54 1017.8
20260906052721 73 283 1.0 2.0 0.00 0.00 0.00 55 1017.7
20260906052217 73 312 1.0 1.0 0.00 0.00 0.00 55 1017.8
20260906051714 74 10 2.0 2.0 0.00 0.00 0.00 54 1017.9
20260906051213 74 271 0.0 2.0 0.00 0.00 0.00 54 1017.9
20260906050708 74 347 2.0 3.0 0.00 0.00 0.00 53 1017.7
20260906050203 74 357 2.0 3.0 0.00 0.00 0.00 53 1018.2
20260906045701 74 358 1.0 1.0 0.00 0.00 0.00 53 1017.7
20260906045157 74 312 2.0 3.0 0.00 0.00 0.00 54 1017.6
20260906044653 74 324 2.0 3.0 0.00 0.00 0.00 53 1017.6
20260906044148 75 336 0.0 2.0 0.00 0.00 0.00 52 1017.5
20260906043644 75 16 2.0 3.0 0.00 0.00 0.00 51 1017.6
20260906043140 75 343 3.0 4.0 0.00 0.00 0.00 51 1017.5
20260906042639 74 355 2.0 4.0 0.00 0.00 0.00 52 1017.5
20260906042133 75 22 3.0 3.0 0.00 0.00 0.00 49 1017.6
20260906041629 75 355 0.0 1.0 0.00 0.00 0.00 49 1017.5
20260906041124 76 286 1.0 2.0 0.00 0.00 0.00 48 1017.2
20260906040620 77 301 2.0 2.0 0.00 0.00 0.00 48 1017.3
20260906040115 78 288 2.0 2.0 0.00 0.00 0.00 47 1017.1
20260906035610 77 287 2.0 2.0 0.00 0.00 0.00 47 1017.2
20260906035106 78 343 0.0 0.0 0.00 0.00 0.00 48 1017.2
20260906034605 79 5 1.0 1.0 0.00 0.00 0.00 47 1017.6
20260906034101 80 82 0.0 1.0 0.00 0.00 0.00 45 1017.2
20260906033556 81 116 2.0 3.0 0.00 0.00 0.00 44 1017.5
20260906033051 80 108 3.0 3.0 0.00 0.00 0.00 45 1017.3
20260906032548 79 29 0.0 1.0 0.00 0.00 0.00 46 1017.6
20260906032047 79 29 0.0 0.0 0.00 0.00 0.00 46 1017.3
20260906031543 79 348 0.0 0.0 0.00 0.00 0.00 44 1017.5
20260906031038 79 16 0.0 1.0 0.00 0.00 0.00 42 1017.3
20260906030538 79 12 0.0 0.0 0.00 0.00 0.00 42 1017.0
20260906030038 79 359 0.0 1.0 0.00 0.00 0.00 41 1016.9
20260906025538 79 311 0.0 0.0 0.00 0.00 0.00 42 1016.8
20260906025036 78 259 0.0 1.0 0.00 0.00 0.00 41 1016.9
20260906024531 78 33 0.0 2.0 0.00 0.00 0.00 40 1016.5
20260906024031 79 280 0.0 1.0 0.00 0.00 0.00 39 1016.5
20260906023527 80 295 1.0 2.0 0.00 0.00 0.00 38 1016.4
20260906023022 81 277 1.0 2.0 0.00 0.00 0.00 38 1016.1
20260906022517 81 261 1.0 2.0 0.00 0.00 0.00 37 1016.2
20260906022013 81 174 1.0 2.0 0.00 0.00 0.00 36 1016.3
20260906021509 82 248 0.0 1.0 0.00 0.00 0.00 38 1015.8
20260906021008 83 282 0.0 1.0 0.00 0.00 0.00 36 1015.9
20260906020507 83 282 1.0 2.0 0.00 0.00 0.00 35 1015.8
20260906020007 83 265 1.0 2.0 0.00 0.00 0.00 35 1015.5
20260906015507 83 121 0.0 0.0 0.00 0.00 0.00 36 1015.7
20260906015006 82 227 0.0 1.0 0.00 0.00 0.00 36 1015.5
20260906014501 84 279 1.0 1.0 0.00 0.00 0.00 36 1015.5
20260906013957 85 287 1.0 1.0 0.00 0.00 0.00 35 1015.4
20260906013452 86 285 2.0 2.0 0.00 0.00 0.00 35 1015.5
20260906012949 86 288 1.0 1.0 0.00 0.00 0.00 35 1015.4
20260906012449 86 263 0.0 1.0 0.00 0.00 0.00 35 1015.5
20260906011948 86 273 0.0 1.0 0.00 0.00 0.00 35 1015.4
20260906011444 87 13 0.0 0.0 0.00 0.00 0.00 35 1015.5
20260906010939 89 13 0.0 0.0 0.00 0.00 0.00 34 1015.6
20260906010434 90 14 0.0 1.0 0.00 0.00 0.00 32 1015.4
20260906005930 90 68 0.0 0.0 0.00 0.00 0.00 32 1015.6
20260906005430 91 72 0.0 1.0 0.00 0.00 0.00 31 1015.6
20260906004928 92 62 1.0 2.0 0.00 0.00 0.00 31 1015.4
20260906004422 92 73 2.0 3.0 0.00 0.00 0.00 30 1015.6
20260906003918 95 125 0.0 1.0 0.00 0.00 0.00 28 1015.6
20260906003413 96 103 0.0 1.0 0.00 0.00 0.00 27 1015.4
20260906002909 95 275 0.0 1.0 0.00 0.00 0.00 27 1015.4
20260906002408 95 264 0.0 1.0 0.00 0.00 0.00 27 1015.2
20260906001904 95 230 0.0 1.0 0.00 0.00 0.00 27 1015.2
20260906001400 94 202 2.0 4.0 0.00 0.00 0.00 27 1015.4
20260906000900 94 202 2.0 4.0 0.00 0.00 0.00 29 1015.4
20260906000400 92 109 2.0 4.0 0.00 0.00 0.00 30 1015.5
20260905235855 91 96 1.0 3.0 0.00 0.00 0.00 31 1015.6
20260905235349 91 179 2.0 3.0 0.00 0.00 0.00 31 1015.4
20260905234844 91 206 4.0 8.0 0.00 0.00 0.00 31 1015.6
20260905234339 91 265 4.0 10.0 0.00 0.00 0.00 31 1015.1
20260905233835 93 187 7.0 13.0 0.00 0.00 0.00 29 1015.5
20260905233329 94 101 4.0 7.0 0.00 0.00 0.00 27 1015.4
20260905232828 94 144 6.0 7.0 0.00 0.00 0.00 27 1015.0
20260905232325 94 142 8.0 13.0 0.00 0.00 0.00 26 1015.1
20260905231820 95 144 7.0 11.0 0.00 0.00 0.00 26 1015.2
20260905231315 95 150 6.0 11.0 0.00 0.00 0.00 26 1015.0
20260905230812 96 31 4.0 8.0 0.00 0.00 0.00 25 1015.1
20260905230309 96 131 9.0 11.0 0.00 0.00 0.00 25 1015.1
20260905225809 96 79 8.0 11.0 0.00 0.00 0.00 26 1015.1
20260905225306 96 131 2.0 6.0 0.00 0.00 0.00 25 1015.2
20260905224804 95 81 4.0 4.0 0.00 0.00 0.00 26 1015.1
20260905224259 95 142 0.0 0.0 0.00 0.00 0.00 27 1015.2
20260905223754 95 123 4.0 6.0 0.00 0.00 0.00 26 1015.2
20260905223252 95 141 4.0 7.0 0.00 0.00 0.00 26 1015.2
20260905222747 95 55 3.0 6.0 0.00 0.00 0.00 26 1015.1
20260905222246 95 112 0.0 4.0 0.00 0.00 0.00 26 1015.2
20260905221742 95 96 6.0 10.0 0.00 0.00 0.00 26 1015.4
20260905221239 95 57 7.0 9.0 0.00 0.00 0.00 26 1015.4
20260905220734 95 71 9.0 11.0 0.00 0.00 0.00 26 1015.4
20260905220231 95 85 9.0 10.0 0.00 0.00 0.00 26 1015.2
20260905215730 96 66 0.0 2.0 0.00 0.00 0.00 26 1015.2
20260905215226 95 56 1.0 4.0 0.00 0.00 0.00 26 1015.4
20260905214721 96 92 7.0 9.0 0.00 0.00 0.00 26 1015.5
20260905214217 97 72 4.0 7.0 0.00 0.00 0.00 25 1015.4
20260905213712 97 51 3.0 7.0 0.00 0.00 0.00 25 1015.4
20260905213208 97 183 1.0 2.0 0.00 0.00 0.00 25 1015.5
20260905212703 97 241 2.0 4.0 0.00 0.00 0.00 25 1015.2
20260905212202 98 83 4.0 8.0 0.00 0.00 0.00 25 1015.5